Location: Alphen
(52.1351°N, 4.6549°E)
Time: 01:48:06
(UTC+00:00)

ERS-2 - Pass Details

Date: 27 January 2021
Orbit: 492 x 497 km, 98.6° (Epoch: 27 February)

Event Time Altitude Azimuth Distance (km) Brightness Sun altitude
Rises 05:19:52 0° 177° (S) 2,573 5.8 -19.6°
Reaches altitude 10° 05:21:59 10° 183° (S) 1,694 4.8 -19.3°
Enters shadow 05:25:03 44° 233° (SW) 694 2.5 -18.8°
